Terug naar catalogus

ONEWEB-0599

ActiefCommunicatiePO
NORAD 55155·PAYLOAD·🇬🇧 United Kingdom

Gelanceerd Jan 10, 2023 vanaf Cape Canaveral Space Force Station

Loading…

Volgende Passages (komende 24 uur)

TLE

VersSource: CelesTrak SupGP

Epoch: Sep 14, 2026, 22:57 UTC

1 55155C 23004R   26257.95640463 -.00000381  00000+0 -98335-3 0  2570
2 55155  87.9206 348.0370 0001891  94.8833  14.6288 13.17651417    10

Volg ONEWEB-0599 in realtime met AllMySat

Download on the App Store